DW8785 Weather Reports


time (UTC)temp
C
wind
direction
speed
KPH
gust
KPH
rain 1hr
cm
rain 24hr
cm
rain mn
cm
humidity
%
barometer
mb
20260504081600 15 191 25.7 0.0 0.00 0.00 0.00 48 1015.3
20260504050006 12 195 24.1 0.0 0.00 0.00 0.00 48 1013.8
20260504044559 12 357 24.1 0.0 0.00 0.00 0.00 50 1013.9
20260504043059 12 188 20.9 0.0 0.00 0.00 0.00 50 1013.8
20260504041550 11 188 19.3 0.0 0.00 0.00 0.00 50 1013.8
20260504040048 12 185 19.3 0.0 0.00 0.00 0.00 47 1013.7
20260504034547 12 192 19.3 0.0 0.00 0.00 0.00 48 1013.6
20260504033037 12 359 20.9 0.0 0.00 0.00 0.00 47 1013.7
20260504031534 12 359 16.1 0.0 0.00 0.00 0.00 50 1013.7
20260504030034 12 198 16.1 0.0 0.00 0.00 0.00 50 1013.5
20260504024522 12 359 16.1 0.0 0.00 0.00 0.00 50 1013.6
20260504023018 12 359 17.7 0.0 0.00 0.00 0.00 50 1013.7
20260504021515 12 359 17.7 0.0 0.00 0.00 0.00 51 1013.7
20260504020011 12 359 17.7 0.0 0.00 0.00 0.00 52 1013.7
20260504014505 12 359 17.7 0.0 0.00 0.00 0.00 52 1013.5
20260504013001 12 359 20.9 0.0 0.00 0.00 0.00 51 1013.5
20260504011558 12 359 22.5 0.0 0.00 0.00 0.00 50 1013.6
20260504010055 13 359 22.5 0.0 0.00 0.00 0.00 50 1013.5
20260504004550 13 275 22.5 0.0 0.00 0.00 0.00 49 1013.6
20260504003044 13 359 20.9 0.0 0.00 0.00 0.00 49 1013.5
20260504001543 13 272 24.1 0.0 0.00 0.00 0.00 50 1013.7
20260504000035 12 282 24.1 0.0 0.00 0.00 0.00 51 1013.8
20260503234531 12 271 24.1 0.0 0.00 0.00 0.00 50 1013.8
20260503233026 12 359 22.5 0.0 0.00 0.00 0.00 51 1013.9
20260503231525 13 359 24.1 0.0 0.00 0.00 0.00 50 1013.9
20260503230034 13 359 22.5 0.0 0.00 0.00 0.00 50 1014.0
20260503224513 13 359 22.5 0.0 0.00 0.00 0.00 49 1014.0
20260503223008 13 275 20.9 0.0 0.00 0.00 0.00 48 1013.9
20260503221504 12 246 19.3 0.0 0.00 0.00 0.00 51 1014.2
20260503220100 12 356 17.7 0.0 0.00 0.00 0.00 53 1014.3
20260503214554 12 359 16.1 0.0 0.00 0.00 0.00 56 1014.3
20260503213050 12 191 17.7 0.0 0.00 0.00 0.00 57 1014.2
20260503211549 12 359 17.7 0.0 0.00 0.00 0.00 57 1014.3
20260503210042 12 192 16.1 0.0 0.00 0.00 0.00 58 1014.3
20260503204538 13 306 16.1 0.0 0.00 0.00 0.00 58 1014.4
20260503203036 13 359 17.7 0.0 0.00 0.00 0.00 58 1014.4
20260503201528 13 359 16.1 0.0 0.00 0.00 0.00 57 1014.4
20260503200026 13 301 14.5 0.0 0.00 0.00 0.00 57 1014.4
20260503194518 13 359 12.9 0.0 0.00 0.00 0.00 57 1014.3
20260503193030 14 359 16.1 0.0 0.00 0.00 0.00 57 1014.2
20260503191527 14 357 14.5 0.0 0.00 0.00 0.00 58 1014.1
20260503190014 14 359 14.5 0.0 0.00 0.00 0.00 57 1014.2
20260503184501 15 359 14.5 0.0 0.00 0.00 0.00 56 1014.1
20260503183058 15 359 14.5 0.0 0.00 0.00 0.00 55 1014.1
20260503181554 15 274 14.5 0.0 0.00 0.00 0.00 56 1014.0
20260503180057 15 357 12.9 0.0 0.00 0.00 0.00 56 1013.8
20260503174551 16 0 12.9 0.0 0.00 0.00 0.00 55 1013.9
20260503173041 16 253 11.3 0.0 0.00 0.00 0.00 54 1013.7
20260503171536 17 191 11.3 0.0 0.00 0.00 0.00 53 1013.7